User: anonymous   Login
Location: L'Union
(43.6635°N, 1.4699°E)
Time: 13:42:53
(UTC+02:00)
Language:

LO-87 - Orbit

View from above orbital plane
View from above orbital plane
View from above satellite
View from above satellite

Ground track
Ground track

The orbit data is extracted from the following two-line orbital elements,

1 41557U 16033B   21296.08515109  .00004231  00000-0  14700-3 0  9999
2 41557  97.3940  29.3624 0013699 137.3391 344.5243 15.30215003301040
Epoch (UTC): 23 October 2021 02:02:37
Eccentricity: 0.0013699
inclination: 97.3940°
perigee height: 466 km
apogee height: 484 km
right ascension of ascending node: 29.3624°
argument of perigee: 137.3391°
revolutions per day: 15.30215003
mean anomaly at epoch: 344.5243°
orbit number at epoch: 30104

The dashed part of the orbit path shows where the satellite is in the earth's shadow,  

DLR